Location: Ariel
(45.9570°N, 122.5700°W)
Time: 16:53:51
(UTC-07:00)

Tiros 1 - Pass Details

Date: 21 July 2019
Orbit: 631 x 664 km, 48.4° (Epoch: 23 August)

Event Time Altitude Azimuth Distance (km) Brightness Sun altitude
Rises 18:49:20 0° 289° (WNW) 2,997 12.2 19.1°
Reaches altitude 10° 18:51:47 10° 283° (WNW) 2,080 12.3 18.7°
Maximum altitude 18:56:18 42° 213° (SSW) 936 8.5 17.9°
Drops below altitude 10° 19:00:47 10° 143° (SE) 2,056 9.4 17.2°
Sets 19:03:11 0° 136° (SE) 2,959 10.1 16.8°
